Weather in Kompaniivka

Ukraine / Kirovohrad Region     48˚15′11″N   32˚12′19″E
temp.,
°C
wind,
m/s
gust,
m/s
humid.,
%
clouds,
%
prec.,
mm/h
press.,
hPa
HPBL,
m
1 december, tue
tue123:00+1˚n5897100 0.1 1025259
02:00+1˚n6994100 0.1 1024327
05:00+1˚nne6990100 0.0 1024330
08:00+1˚nne5891100 0.0 1024307
11:00+3˚nne4691100 0.1 1024393
14:00+3˚ne4676100 0.1 1024647
17:00+2˚ne4789100 0.0 1024489
20:00+1˚ene4796100 0.1 1024423
2 december, wed
wed223:00+1˚ene4696100 0.1 1025368
02:00ne4696100 0.3 1025296
05:00+1˚ne3597100 0.4 1025263
08:00+1˚e4797100 0.9 1025306
11:00+1˚e4693100 0.1 1025405
14:00+1˚e4696100 0.5 1025297
17:00+2˚e4697100 0.6 1025247
20:00+3˚ese4697100 1.1 1025273
3 december, thu
thu323:00+3˚ese3598100 0.3 1025230
02:00+3˚ese3596100 0.6 1025240
05:00+3˚ese3496100 0.6 1024187
08:00+2˚se249593 0.7 1025169
11:00+5˚sse348179 0.0 1025494
14:00+6˚s237390 0.0 1025655
17:00+4˚ese128682 0.0 102422
20:00+4˚ese358983 0.1 1025125
4 december, fri
fri423:00+4˚ese478896 0.0 1025228
02:00+2˚ese469775 0.0 1024154
05:00+1˚ese379858 0.0 1024176
08:00e389748 0.0 1024208
11:00+3˚ese578957 0.0 1024414
14:00+3˚ese578879 0.0 1023497
17:00+3˚ese5889100 0.0 1024518
20:00+4˚se6990100 0.0 1024528
5 december, sat
sat523:00+4˚se6987100 0.0 1024517
02:00+3˚ese6991100 0.0 1024436
05:00+3˚se699399 0.0 1024442
08:00+3˚se6893100 0.0 1026435
11:00+3˚ese6888100 0.0 1026441
14:00+4˚ese5878100 0.0 1026446
17:00+2˚ese498125 0.0 1026341
20:00+1˚ese4118331 0.0 1027367